Hourly Data Report for June 01, 2018

LONDON CS
ONTARIO
Current Station Operator: ECCC - MSC

43°02'00.000" N
81°09'00.000" W
278.00 m
6144478
71622
WSN

Download Data

Hourly Data (June 2018)
Hourly Data Report for June 1, 2018
TIME Temp Definition
°C
Dew Point Definition
°C
Rel Hum Definition
%
Wind Dir Definition
10's deg

Wind Spd Definition
km/h
Visibility Definition
km
Stn Press Definition
kPa
Hmdx Definition


Wind Chill Definition


Weather Definition


00:00 21.0 19.1 89 LegendMM LegendMM   97.45 28   LegendNANA
01:00 20.3 18.8 91 LegendMM LegendMM   97.46 27   LegendNANA
02:00 20.5 18.3 87 LegendMM LegendMM   97.43 27   LegendNANA
03:00 19.8 17.7 88 LegendMM LegendMM   97.47     LegendNANA
04:00 19.6 17.9 90 LegendMM LegendMM   97.45     LegendNANA
05:00 19.4 17.6 90 LegendMM LegendMM   97.52     LegendNANA
06:00 20.1 17.9 88 LegendMM LegendMM   97.56 26   LegendNANA
07:00 21.4 18.0 81 LegendMM LegendMM   97.62 27   LegendNANA
08:00 22.7 18.0 75 LegendMM LegendMM   97.66 29   LegendNANA
09:00 24.1 18.5 71 LegendMM LegendMM   97.70 30   LegendNANA
10:00 24.7 18.6 69 LegendMM LegendMM   97.72 31   LegendNANA
11:00 24.4 17.7 66 LegendMM LegendMM   97.77 30   LegendNANA
12:00 25.8 17.5 60 LegendMM LegendMM   97.76 31   LegendNANA
13:00 27.2 17.6 56 LegendMM LegendMM   97.73 33   LegendNANA
14:00 27.3 17.6 55 LegendMM LegendMM   97.74 33   LegendNANA
15:00 27.3 18.0 57 LegendMM LegendMM   97.75 33   LegendNANA
16:00 26.8 17.3 56 LegendMM LegendMM   97.73 32   LegendNANA
17:00 26.2 16.6 55 LegendMM LegendMM   97.75 31   LegendNANA
18:00 26.1 16.0 54 LegendMM LegendMM   97.77 31   LegendNANA
19:00 23.8 16.1 62 LegendMM LegendMM   97.85 28   LegendNANA
20:00 21.5 15.9 71 LegendMM LegendMM   97.87 26   LegendNANA
21:00 18.1 14.1 78 LegendMM LegendMM   97.97     LegendNANA
22:00 17.2 14.0 81 LegendMM LegendMM   98.01     LegendNANA
23:00 17.4 14.6 84 LegendMM LegendMM   98.02     LegendNANA

Notes on Data Quality.

Legend

  • E = Estimated
  • M = Missing
  • NA = Not Available*
  • [empty] = Indicates an unobserved value
Date modified: